| time (UTC) | temp F | wind direction | speed MPH | gust MPH | rain 1hr in | rain 24hr in | rain mn in | humidity % | barometer mb |
| 20260504231508 | 41 | 172 | 21.0 | 28.0 | 0.00 | 0.00 | 0.00 | 34 | 982.3 |
| 20260504231007 | 41 | 169 | 14.0 | 22.0 | 0.00 | 0.00 | 0.00 | 34 | 982.3 |
| 20260504230507 | 42 | 187 | 13.0 | 20.0 | 0.00 | 0.00 | 0.00 | 27 | 981.8 |
| 20260504230006 | 42 | 173 | 18.0 | 27.0 | 0.00 | 0.00 | 0.00 | 26 | 981.0 |
| 20260504225505 | 44 | 177 | 20.0 | 26.0 | 0.00 | 0.00 | 0.00 | 22 | 981.9 |
| 20260504225005 | 44 | 183 | 17.0 | 25.0 | 0.00 | 0.00 | 0.00 | 19 | 982.3 |
| 20260504224504 | 47 | 194 | 4.0 | 15.0 | 0.00 | 0.00 | 0.00 | 16 | 982.6 |
| 20260504224003 | 49 | 197 | 10.0 | 17.0 | 0.00 | 0.00 | 0.00 | 11 | 981.8 |
| 20260504223509 | 48 | 182 | 16.0 | 22.0 | 0.00 | 0.00 | 0.00 | 9 | 982.5 |
| 20260504223008 | 49 | 168 | 11.0 | 21.0 | 0.00 | 0.00 | 0.00 | 10 | 982.4 |
| 20260504222507 | 50 | 211 | 11.0 | 25.0 | 0.00 | 0.00 | 0.00 | 7 | 982.2 |
| 20260504222007 | 50 | 217 | 19.0 | 24.0 | 0.00 | 0.00 | 0.00 | 6 | 982.2 |
| 20260504221506 | 51 | 209 | 17.0 | 26.0 | 0.00 | 0.00 | 0.00 | 6 | 983.0 |
| 20260504221006 | 53 | 190 | 5.0 | 10.0 | 0.00 | 0.00 | 0.00 | 6 | 982.7 |
| 20260504220505 | 54 | 182 | 6.0 | 10.0 | 0.00 | 0.00 | 0.00 | 7 | 983.1 |
| 20260504220004 | 54 | 219 | 11.0 | 21.0 | 0.00 | 0.00 | 0.00 | 6 | 983.3 |
| 20260504215503 | 55 | 148 | 10.0 | 19.0 | 0.00 | 0.00 | 0.00 | 5 | 983.1 |
| 20260504215003 | 56 | 177 | 8.0 | 15.0 | 0.00 | 0.00 | 0.00 | 4 | 983.9 |
| 20260504214508 | 56 | 177 | 16.0 | 19.0 | 0.00 | 0.00 | 0.00 | 4 | 982.9 |
| 20260504214008 | 59 | 302 | 3.0 | 4.0 | 0.00 | 0.00 | 0.00 | 2 | 983.1 |
| 20260504213507 | 58 | 330 | 3.0 | 3.0 | 0.00 | 0.00 | 0.00 | 3 | 983.2 |
| 20260504213007 | 55 | 187 | 6.0 | 6.0 | 0.00 | 0.00 | 0.00 | 2 | 983.0 |
| 20260504212506 | 55 | 171 | 9.0 | 16.0 | 0.00 | 0.00 | 0.00 | 2 | 983.4 |
| 20260504212006 | 52 | 166 | 17.0 | 17.0 | 0.00 | 0.00 | 0.00 | 4 | 983.0 |
| 20260504211505 | 52 | 166 | 17.0 | 17.0 | 0.00 | 0.00 | 0.00 | 4 | 983.0 |
| 20260504211005 | 54 | 191 | 32.0 | 32.0 | 0.00 | 0.00 | 0.00 | 1 | 984.3 |
| 20260504210504 | 54 | 191 | 32.0 | 32.0 | 0.00 | 0.00 | 0.00 | 1 | 984.3 |
| 20260504210004 | 57 | 201 | 4.0 | 4.0 | 0.00 | 0.00 | 0.00 | 4 | 983.9 |
| 20260504205503 | 54 | 195 | 22.0 | 22.0 | 0.00 | 0.00 | 0.00 | 2 | 983.5 |
| 20260504205008 | 58 | 181 | 1.0 | 1.0 | 0.00 | 0.00 | 0.00 | 3 | 983.5 |
| 20260504204508 | 58 | 195 | 5.0 | 5.0 | 0.00 | 0.00 | 0.00 | 4 | 983.0 |
| 20260504204007 | 56 | 205 | 8.0 | 8.0 | 0.00 | 0.00 | 0.00 | 3 | 983.6 |
| 20260504203506 | 56 | 183 | 5.0 | 7.0 | 0.00 | 0.00 | 0.00 | 5 | 983.8 |
| 20260504203006 | 55 | 246 | 5.0 | 8.0 | 0.00 | 0.00 | 0.00 | 7 | 983.5 |
| 20260504202505 | 53 | 186 | 17.0 | 24.0 | 0.00 | 0.00 | 0.00 | 5 | 983.5 |
| 20260504201504 | 53 | 175 | 5.0 | 15.0 | 0.00 | 0.00 | 0.00 | 4 | 984.1 |
| 20260504201004 | 52 | 174 | 13.0 | 19.0 | 0.00 | 0.00 | 0.00 | 4 | 983.8 |
| 20260504200504 | 54 | 173 | 10.0 | 16.0 | 0.00 | 0.00 | 0.00 | 4 | 983.7 |
| 20260504200027 | 56 | 186 | 4.0 | 9.0 | 0.00 | 0.00 | 0.00 | 2 | 984.9 |
| 20260504195508 | 57 | 161 | 6.0 | 10.0 | 0.00 | 0.00 | 0.00 | 1 | 983.9 |
| 20260504194507 | 58 | 102 | 7.0 | 10.0 | 0.00 | 0.00 | 0.00 | 100 | 983.5 |
| 20260504194007 | 58 | 165 | 12.0 | 15.0 | 0.00 | 0.00 | 0.00 | 1 | 983.3 |
| 20260504193506 | 60 | 167 | 8.0 | 13.0 | 0.00 | 0.00 | 0.00 | 1 | 983.7 |
| 20260504193006 | 61 | 147 | 7.0 | 8.0 | 0.00 | 0.00 | 0.00 | 1 | 983.9 |
| 20260504192505 | 62 | 141 | 5.0 | 6.0 | 0.00 | 0.00 | 0.00 | 1 | 984.6 |
| 20260504192004 | 61 | 161 | 4.0 | 5.0 | 0.00 | 0.00 | 0.00 | 1 | 983.6 |
| 20260504191504 | 60 | 181 | 3.0 | 6.0 | 0.00 | 0.00 | 0.00 | 1 | 983.4 |
| 20260504191003 | 58 | 161 | 8.0 | 12.0 | 0.00 | 0.00 | 0.00 | 1 | 983.9 |
| 20260504190008 | 58 | 14 | 5.0 | 10.0 | 0.00 | 0.00 | 0.00 | 1 | 983.3 |
| 20260504185508 | 57 | 182 | 13.0 | 17.0 | 0.00 | 0.00 | 0.00 | 1 | 984.1 |
| 20260504185007 | 57 | 185 | 5.0 | 11.0 | 0.00 | 0.00 | 0.00 | 1 | 983.5 |
| 20260504184506 | 57 | 161 | 7.0 | 11.0 | 0.00 | 0.00 | 0.00 | 1 | 983.9 |
| 20260504184006 | 57 | 177 | 6.0 | 9.0 | 0.00 | 0.00 | 0.00 | 1 | 984.8 |
| 20260504183505 | 55 | 181 | 12.0 | 16.0 | 0.00 | 0.00 | 0.00 | 1 | 983.6 |
| 20260504182504 | 58 | 166 | 6.0 | 9.0 | 0.00 | 0.00 | 0.00 | 1 | 984.7 |
| 20260504182003 | 58 | 142 | 3.0 | 6.0 | 0.00 | 0.00 | 0.00 | 1 | 984.3 |
| 20260504181009 | 58 | 175 | 3.0 | 8.0 | 0.00 | 0.00 | 0.00 | 1 | 983.8 |
| 20260504180508 | 58 | 245 | 4.0 | 9.0 | 0.00 | 0.00 | 0.00 | 1 | 984.5 |
| 20260504175507 | 54 | 174 | 10.0 | 15.0 | 0.00 | 0.00 | 0.00 | 1 | 983.6 |
| 20260504175006 | 55 | 179 | 7.0 | 13.0 | 0.00 | 0.00 | 0.00 | 2 | 984.4 |
| 20260504174505 | 54 | 183 | 5.0 | 13.0 | 0.00 | 0.00 | 0.00 | 2 | 983.6 |
| 20260504174005 | 54 | 175 | 6.0 | 10.0 | 0.00 | 0.00 | 0.00 | 100 | 983.2 |
| 20260504173003 | 53 | 179 | 16.0 | 19.0 | 0.00 | 0.00 | 0.00 | 2 | 984.2 |
| 20260504172508 | 54 | 208 | 8.0 | 16.0 | 0.00 | 0.00 | 0.00 | 3 | 983.2 |
| 20260504172008 | 55 | 208 | 4.0 | 10.0 | 0.00 | 0.00 | 0.00 | 2 | 983.1 |
| 20260504171507 | 53 | 194 | 8.0 | 16.0 | 0.00 | 0.00 | 0.00 | 1 | 982.4 |
| 20260504171006 | 54 | 186 | 6.0 | 13.0 | 0.00 | 0.00 | 0.00 | 1 | 983.8 |
| 20260504170506 | 55 | 169 | 11.0 | 15.0 | 0.00 | 0.00 | 0.00 | 1 | 983.2 |
| 20260504151008 | 47 | 152 | 3.0 | 6.0 | 0.00 | 0.00 | 0.00 | 24 | 982.0 |
| 20260504141007 | 43 | 182 | 16.0 | 22.0 | 0.00 | 0.00 | 0.00 | 27 | 981.7 |
| 20260504140507 | 44 | 8 | 4.0 | 7.0 | 0.00 | 0.00 | 0.00 | 30 | 981.4 |
| 20260504130503 | 43 | 176 | 8.0 | 8.0 | 0.00 | 0.00 | 0.00 | 27 | 980.0 |
| 20260504110508 | 44 | 168 | 11.0 | 19.0 | 0.00 | 0.00 | 0.00 | 18 | 980.0 |
| 20260504081508 | 44 | 188 | 12.0 | 25.0 | 0.00 | 0.00 | 0.00 | 20 | 980.0 |
| 20260504080507 | 44 | 177 | 32.0 | 50.0 | 0.00 | 0.00 | 0.00 | 15 | 980.2 |
| 20260504050506 | 46 | 294 | 10.0 | 22.0 | 0.00 | 0.00 | 0.00 | 14 | 981.1 |
| 20260504050005 | 46 | 321 | 4.0 | 9.0 | 0.00 | 0.00 | 0.00 | 15 | 981.1 |
| 20260504045004 | 46 | 229 | 8.0 | 18.0 | 0.00 | 0.00 | 0.00 | 14 | 981.6 |
| 20260504044504 | 47 | 304 | 5.0 | 16.0 | 0.00 | 0.00 | 0.00 | 14 | 981.1 |
| 20260504044004 | 47 | 350 | 5.0 | 11.0 | 0.00 | 0.00 | 0.00 | 14 | 980.9 |
| 20260504043009 | 47 | 185 | 7.0 | 15.0 | 0.00 | 0.00 | 0.00 | 13 | 981.5 |
| 20260504042508 | 47 | 191 | 7.0 | 17.0 | 0.00 | 0.00 | 0.00 | 13 | 981.2 |
| 20260504041507 | 47 | 182 | 9.0 | 21.0 | 0.00 | 0.00 | 0.00 | 11 | 982.1 |
| 20260504041007 | 47 | 174 | 6.0 | 16.0 | 0.00 | 0.00 | 0.00 | 12 | 982.0 |
| 20260504040006 | 48 | 150 | 5.0 | 10.0 | 0.00 | 0.00 | 0.00 | 10 | 981.5 |
| 20260504035505 | 48 | 244 | 8.0 | 19.0 | 0.00 | 0.00 | 0.00 | 9 | 981.9 |
| 20260504035004 | 49 | 58 | 2.0 | 4.0 | 0.00 | 0.00 | 0.00 | 9 | 981.8 |
| 20260504034509 | 49 | 162 | 5.0 | 15.0 | 0.00 | 0.00 | 0.00 | 8 | 981.9 |
| 20260504034009 | 49 | 340 | 4.0 | 7.0 | 0.00 | 0.00 | 0.00 | 7 | 981.6 |
| 20260504033008 | 49 | 177 | 10.0 | 29.0 | 0.00 | 0.00 | 0.00 | 6 | 981.6 |
| 20260504032507 | 50 | 196 | 5.0 | 14.0 | 0.00 | 0.00 | 0.00 | 5 | 981.5 |
| 20260504031507 | 50 | 196 | 11.0 | 20.0 | 0.00 | 0.00 | 0.00 | 3 | 981.5 |
| 20260504031006 | 50 | 305 | 5.0 | 11.0 | 0.00 | 0.00 | 0.00 | 3 | 981.7 |
| 20260504030506 | 50 | 191 | 9.0 | 19.0 | 0.00 | 0.00 | 0.00 | 1 | 981.6 |
| 20260504030005 | 51 | 166 | 4.0 | 9.0 | 0.00 | 0.00 | 0.00 | 100 | 982.3 |
| 20260504025504 | 52 | 168 | 7.0 | 14.0 | 0.00 | 0.00 | 0.00 | 1 | 982.5 |
| 20260504025003 | 51 | 208 | 4.0 | 11.0 | 0.00 | 0.00 | 0.00 | 100 | 981.6 |
| 20260504024508 | 51 | 215 | 4.0 | 13.0 | 0.00 | 0.00 | 0.00 | 100 | 982.1 |
| 20260504024008 | 51 | 278 | 5.0 | 13.0 | 0.00 | 0.00 | 0.00 | 1 | 981.6 |
| 20260504023507 | 52 | 158 | 7.0 | 15.0 | 0.00 | 0.00 | 0.00 | 1 | 981.8 |
| 20260504023007 | 52 | 185 | 7.0 | 16.0 | 0.00 | 0.00 | 0.00 | 1 | 982.3 |
| 20260504022506 | 52 | 182 | 7.0 | 15.0 | 0.00 | 0.00 | 0.00 | 1 | 981.6 |
| 20260504022005 | 52 | 190 | 7.0 | 15.0 | 0.00 | 0.00 | 0.00 | 1 | 981.8 |
| 20260504021505 | 52 | 282 | 4.0 | 11.0 | 0.00 | 0.00 | 0.00 | 1 | 981.7 |
| 20260504020504 | 53 | 169 | 4.0 | 10.0 | 0.00 | 0.00 | 0.00 | 1 | 982.4 |
| 20260504020003 | 53 | 192 | 7.0 | 10.0 | 0.00 | 0.00 | 0.00 | 1 | 982.3 |
| 20260504015509 | 53 | 239 | 4.0 | 9.0 | 0.00 | 0.00 | 0.00 | 1 | 982.1 |
| 20260504015038 | 53 | 182 | 7.0 | 12.0 | 0.00 | 0.00 | 0.00 | 1 | 982.6 |
| 20260504014507 | 53 | 194 | 3.0 | 10.0 | 0.00 | 0.00 | 0.00 | 1 | 982.3 |
| 20260504014007 | 54 | 156 | 5.0 | 13.0 | 0.00 | 0.00 | 0.00 | 1 | 981.9 |
| 20260504013506 | 55 | 209 | 6.0 | 13.0 | 0.00 | 0.00 | 0.00 | 1 | 982.3 |
| 20260504013006 | 55 | 196 | 4.0 | 12.0 | 0.00 | 0.00 | 0.00 | 1 | 982.0 |
| 20260504012505 | 55 | 267 | 6.0 | 14.0 | 0.00 | 0.00 | 0.00 | 1 | 982.4 |
| 20260504012005 | 56 | 221 | 4.0 | 11.0 | 0.00 | 0.00 | 0.00 | 1 | 981.4 |
| 20260504011504 | 57 | 197 | 4.0 | 8.0 | 0.00 | 0.00 | 0.00 | 1 | 982.7 |
| 20260504011003 | 57 | 197 | 4.0 | 11.0 | 0.00 | 0.00 | 0.00 | 1 | 983.4 |
| 20260504010009 | 57 | 187 | 10.0 | 15.0 | 0.00 | 0.00 | 0.00 | 1 | 983.1 |
| 20260504005508 | 58 | 162 | 2.0 | 4.0 | 0.00 | 0.00 | 0.00 | 1 | 983.0 |
| 20260504005008 | 60 | 341 | 3.0 | 7.0 | 0.00 | 0.00 | 0.00 | 1 | 983.2 |
| 20260504004507 | 59 | 138 | 5.0 | 15.0 | 0.00 | 0.00 | 0.00 | 1 | 983.2 |
| 20260504004006 | 60 | 234 | 8.0 | 20.0 | 0.00 | 0.00 | 0.00 | 1 | 983.3 |
| 20260504003506 | 60 | 283 | 3.0 | 6.0 | 0.00 | 0.00 | 0.00 | 1 | 982.4 |
| 20260504002505 | 61 | 185 | 13.0 | 19.0 | 0.00 | 0.00 | 0.00 | 1 | 983.1 |
| 20260504002007 | 63 | 147 | 9.0 | 16.0 | 0.00 | 0.00 | 0.00 | 1 | 983.0 |
| 20260504001507 | 64 | 357 | 8.0 | 19.0 | 0.00 | 0.00 | 0.00 | 1 | 982.1 |
| 20260504001006 | 64 | 182 | 8.0 | 14.0 | 0.00 | 0.00 | 0.00 | 1 | 982.9 |
| 20260504000505 | 64 | 171 | 14.0 | 19.0 | 0.00 | 0.00 | 0.00 | 1 | 983.5 |
| 20260504000005 | 66 | 255 | 3.0 | 8.0 | 0.00 | 0.00 | 0.00 | 1 | 982.8 |
| 20260503235504 | 67 | 174 | 2.0 | 6.0 | 0.00 | 0.00 | 0.00 | 1 | 983.7 |
| 20260503235003 | 68 | 303 | 3.0 | 6.0 | 0.00 | 0.00 | 0.00 | 1 | 984.0 |
| 20260503234503 | 69 | 164 | 3.0 | 7.0 | 0.00 | 0.00 | 0.00 | 1 | 984.0 |
| 20260503234008 | 69 | 174 | 3.0 | 6.0 | 0.00 | 0.00 | 0.00 | 1 | 984.0 |
| 20260503233507 | 69 | 188 | 2.0 | 5.0 | 0.00 | 0.00 | 0.00 | 1 | 984.0 |
| 20260503233007 | 69 | 8 | 2.0 | 5.0 | 0.00 | 0.00 | 0.00 | 1 | 983.1 |
| 20260503232506 | 69 | 103 | 3.0 | 5.0 | 0.00 | 0.00 | 0.00 | 1 | 982.8 |